Printer-friendly version

IAU Minor Planet Center

Minor Planet Center

MPEC 2000-C26: 2000 CL33

The following Minor Planet Electronic Circular may be linked-to from your own Web pages, but must not otherwise be redistributed electronically.


Read MPEC 2000-C25 Read MPEC 2000-C27


M.P.E.C. 2000-C26                                Issued 2000 Feb. 6, 17:05 UT

     The Minor Planet Electronic Circulars contain information on unusual
         minor planets and routine data on comets.  They are published
   on behalf of Commission 20 of the International Astronomical Union by the
          Minor Planet Center, Smithsonian Astrophysical Observatory,
                          Cambridge, MA 02138, U.S.A.

             Prepared using the Tamkin Foundation Computer Network

             BMARSDEN@CFA.HARVARD.EDU or GWILLIAMS@CFA.HARVARD.EDU
          URL http://cfa-www.harvard.edu/iau/mpc.html  ISSN 1523-6714

                                   2000 CL33

Observations:
     K00C33L* C2000 02 02.34140 10 10 18.32 +01 22 12.4          19.1        704
     K00C33L  C2000 02 02.35538 10 10 16.85 +01 22 09.4          19.5        704
     K00C33L  C2000 02 02.36942 10 10 15.52 +01 22 06.7          19.3        704
     K00C33L  C2000 02 02.38350 10 10 14.02 +01 22 02.7          19.5        704
     K00C33L  C2000 02 03.31163 10 08 43.59 +01 18 55.6          18.7        704
     K00C33L  C2000 02 03.32586 10 08 42.13 +01 18 51.8          19.4        704
     K00C33L  C2000 02 03.34048 10 08 40.61 +01 18 50.1          19.4        704
     K00C33L  C2000 02 03.35476 10 08 39.11 +01 18 47.1          19.4        704
     K00C33L FC2000 02 03.50557 10 08 25.06 +01 18 35.4          19.3        422
     K00C33L  C2000 02 03.50684 10 08 24.96 +01 18 35.1          19.5        422
     K00C33L  C2000 02 03.51071 10 08 24.58 +01 18 34.8          19.3        422
     K00C33L  C2000 02 03.51226 10 08 24.41 +01 18 35.1          19.1        422
     K00C33L  C2000 02 03.85594 10 07 50.80 +01 17 11.0          17.8 R      046
     K00C33L  C2000 02 03.85810 10 07 50.63 +01 17 11.3                      046
     K00C33L  C2000 02 03.85983 10 07 50.43 +01 17 10.0                      046
     K00C33L  C2000 02 03.86166 10 07 50.23 +01 17 10.4                      046
     K00C33L  C2000 02 03.86830 10 07 49.59 +01 17 09.4          17.5 R      046
     K00C33L  C2000 02 03.90086 10 07 46.18 +01 17 03.5                      557
     K00C33L  C2000 02 03.90318 10 07 45.94 +01 17 03.4                      557
     K00C33L  C2000 02 03.90553 10 07 45.71 +01 17 02.4          19.2 V      557
     K00C33L  C2000 02 04.20541 10 07 16.57 +01 16 15.5          18.4 R      747
     K00C33L  C2000 02 04.20906 10 07 16.22 +01 16 14.5          18.4 R      747
     K00C33L  C2000 02 04.21272 10 07 15.79 +01 16 14.0          17.7 R      747
     K00C33L  C2000 02 04.31936 10 07 05.08 +01 15 55.2                      651
     K00C33L  C2000 02 04.32343 10 07 04.64 +01 15 54.0          19.6 V      651
     K00C33L  C2000 02 04.32679 10 07 04.35 +01 15 53.6                      651
     K00C33L  C2000 02 04.55602 10 06 42.25 +01 15 33.9          19.4        422
     K00C33L FC2000 02 04.55774 10 06 41.97 +01 15 32.3          19.4        422
     K00C33L FC2000 02 05.63061 10 04 57.08 +01 12 53.1                      422
     K00C33L FC2000 02 05.63130 10 04 57.06 +01 12 54.8          19.4        422
     K00C33L FC2000 02 05.63372 10 04 56.81 +01 12 53.8          19.4        422

Observer details:
046 Klet.  Observers M. Tichy, Z. Moravec.  0.57-m f/5.2 reflector + CCD.
422 Loomberah.  Observer G. J. Garradd.  0.45-m f/5.4 reflector + CCD.
557 Ondrejov.  Observers P. Pravec, P. Kusnirak.  0.65-m f/3.6 reflector + CCD.
651 Grasslands Observatory, Tucson.  Observer J. E. McGaha.  0.62-m f/5.1
    reflector + CCD.
704 Lincoln Laboratory ETS, New Mexico.  Observers M. Blythe, F. Shelly,
    M. Bezpalko, M. Elowitz, R. Huber.  Measurers J. Stuart, H. Viggh,
    R. Sayer, J. B. Evans.  1.0-m f/2.15 reflector + CCD.
747 Baton Rouge Observatory.  Observer W. R. Cooney, Jr.  0.51-m f/8.4
    reflector + CCD.

Orbital elements:
2000 CL33
Epoch 2000 Jan. 17.0 TT = JDT 2451560.5                 Williams
M  18.29438              (2000.0)            P               Q
n   0.25446765     Peri.  127.66695     +0.40130412     -0.90589466
a   2.4663100      Node   298.15507     +0.78461384     +0.41621449
e   0.5508536      Incl.    8.82830     +0.47258451     +0.07823279
P   3.87           H   18.3           G   0.15
From 31 observations 2000 Feb. 2-5.

Ephemeris:
2000 CL33                a,e,i = 2.47, 0.55, 9                   q = 1.1077
Date    TT    R. A. (2000) Decl.     Delta      r     Elong.  Phase     V
2000 01 27    10 20.46   +01 54.2    0.520    1.456   149.2    20.3    18.7
2000 02 06    10 04.36   +01 12.0    0.558    1.525   161.1    12.1    18.7
2000 02 16    09 49.11   +01 07.5    0.616    1.596   168.4     7.2    18.8
2000 02 26    09 37.08   +01 26.3    0.694    1.668   164.0     9.4    19.2
2000 03 07    09 29.36   +01 54.6    0.792    1.740   154.4    14.3    19.8
2000 03 17    09 26.10   +02 21.9    0.907    1.812   144.5    18.6    20.3
2000 03 27    09 26.81   +02 41.7    1.039    1.884   135.3    21.9    20.8
2000 04 06    09 30.76   +02 51.1    1.184    1.955   126.7    24.2    21.3
2000 04 16    09 37.27   +02 48.9    1.341    2.025   118.8    25.7    21.6
2000 04 26    09 45.73   +02 35.2    1.506    2.094   111.3    26.6    22.0

Gareth V. Williams           (C) Copyright 2000 MPC           M.P.E.C. 2000-C26

Read MPEC 2000-C25 Read MPEC 2000-C27


Our Web policy. Index to the CBAT/MPC/ICQ pages.


Valid HTML 4.01!